Location: Bonningues
(50.7927°N, 2.0150°E)
Time: 10:33:16
(UTC+00:00)

Cosmos 1238 Rocket - Pass Details

Date: 08 August 2020
Orbit: 375 x 1027 km, 82.9° (Epoch: 20 September)

Event Time Altitude Azimuth Distance (km) Brightness Sun altitude
Exits shadow 22:07:51 22° 241° (WSW) 924 3.9 -19.2°
Maximum altitude 22:09:08 30° 285° (WNW) 712 3.8 -19.3°
Drops below altitude 10° 22:11:49 10° 350° (N) 1,401 6.0 -19.5°
Sets 22:13:56 0° 2° (N) 2,269 7.0 -19.7°
